Regional Weather Roundup
Issued by NWS

Home | Current Version | Previous Version | Text Only | Print | Product List | Glossary On
Versions: 1 2 3 4 5 6 7 8 9 10 11 12 13 14 15 16 17 18 19 20 21 22 23 24 25 26 27 28 29 30 31 32 33 34 35 36 37 38 39 40 41 42 43 44 45 46 47 48 49 50
000
ASUS44 KLIX 281111
RWRLA
LOUISIANA WEATHER ROUNDUP
NATIONAL WEATHER SERVICE NEW ORLEANS LA
600 AM CDT SAT MAR 28 2015

NOTE: "FAIR" INDICATES FEW OR NO CLOUDS BELOW 12,000 FEET WITH NO
      SIGNIFICANT WEATHER AND/OR OBSTRUCTIONS TO VISIBILITY.
      SKY/WX - SKY CONDITION AND SIGNIFICANT WEATHER.
      TMP - AIR TEMPERATURE.    DP   - DEWPOINT TEMPERATURE.
      RH  - RELATIVE HUMIDITY.  PRES - PRESSURE.
      HX  - HEAT INDEX.         WCI  - WIND CHILL INDEX.

*  THESE STATIONS ARE NOT NWS OR FAA STATIONS AND ARE NOT UNDER
   NWS QUALITY CONTROL.

LAZ040-048-061>063-065-066-069-281200-
SOUTHEAST LOUISIANA

CITY           SKY/WX    TMP DP  RH WIND       PRES   REMARKS
N.O. AUDUBON     N/A     52 N/A N/A MISG        N/A
N.O. INTL ARPT PTCLDY    51  39  63 SE6       30.18R
N.O. LAKEFRONT CLEAR     54  37  52 E14       30.20R
SLIDELL        CLEAR     41  39  93 N5        30.19R
BATON ROUGE    CLEAR     44  40  85 E3        30.19R
BOOTHVILLE     CLEAR     56  46  69 NE7       30.19R
BELLE CHASSE   CLEAR     44  40  85 NE5       30.19R
BOGALUSA*        N/A     41  37  88 CALM      30.21R
GALLIANO*      SUNNY     53  46  76 MISG      30.19R
NEW ROADS*     FAIR      46  39  78 E3        30.19R
GONZALES*      FAIR      46  40  78 CALM      30.19R
HAMMOND*       CLEAR     45  37  76 CALM      30.21R
HOUMA*         CLEAR     47  42  82 CALM      30.18R
PORT FOURCHON* SUNNY     57  46  67 NE9       30.21R

$$

LAZ041-044-053-054-281200-
SOUTHWEST LOUISIANA

CITY           SKY/WX    TMP DP  RH WIND       PRES   REMARKS
LAKE CHARLES   CLEAR     47  43  86 E3        30.16R
LAFAYETTE      CLEAR     48  43  82 CALM      30.19R
PATTERSON      CLEAR     48  39  71 E5        30.20R
SALT POINT       N/A     50  45  83 CALM      30.17R
NEW IBERIA     CLEAR     50  41  71 E6        30.19R
CHENAULT AIRPK CLEAR     46  45  93 CALM      30.18R

$$

LAZ027-028-281200-
CENTRAL LOUISIANA

CITY           SKY/WX    TMP DP  RH WIND       PRES   REMARKS
FORT POLK      CLEAR     46  41  82 E5        30.17R
ALEXANDRIA INT CLEAR     45  40  82 S3        30.18R
ALEXANDRIA     CLEAR     40  39  97 CALM      30.18R

$$

LAZ001-002-281200-
NORTHWEST LOUISIANA

CITY           SKY/WX    TMP DP  RH WIND       PRES   REMARKS
SHREVEPORT     PTCLDY    44  38  79 S5        30.13S
BARKSDALE AFB  PTCLDY    40  38  90 SE3       30.14S
DTN SHREVEPORT CLEAR     46  38  73 SE7       30.14S

$$

LAZ014-016-281200-
NORTHEAST LOUISIANA

CITY           SKY/WX    TMP DP  RH WIND       PRES   REMARKS
MONROE         CLEAR     41  39  93 E3        30.19R
TALLULAH       CLEAR     38  35  89 CALM      30.21R

$$



USA.gov is the U.S. government's official web portal to all federal, state and local government web resources and services.